Regional Weather Roundup
Issued by NWS

Home | Current Version | Previous Version | Text Only | Print | Product List | Glossary Off
Versions: 1 2 3 4 5 6 7 8 9 10 11 12 13 14 15 16 17 18 19 20 21 22 23 24 25 26 27 28 29 30 31 32 33 34 35 36 37 38 39 40 41 42 43 44 45 46 47 48 49 50

724
ASUS43 KOAX 262202
RWRNE

WEATHER ROUNDUP FOR NEBRASKA
NATIONAL WEATHER SERVICE OMAHA NE
500 PM CDT MON JUN 26 2017

NOTES: SATELLITE DATA IS BEING USED TO AUGMENT CLOUD COVER ABOVE
       12000 FEET.
       "FAIR" INDICATES FEW OR NO CLOUDS BELOW 12,000 FEET WITH NO
       SIGNIFICANT WEATHER AND/OR OBSTRUCTIONS TO VISIBILITY.

  * THESE STATIONS DO NOT REPORT WEATHER SUCH AS RAIN...SNOW OR FOG.

NEZ001>004-019>022-054>056-262300-
NEBRASKA PANHANDLE

CITY           SKY/WX    TMP DP  RH WIND       PRES   REMARKS
SCOTTSBLUFF    SUNNY     83  43  24 SE9G17    30.12F
ALLIANCE       SUNNY     81  36  19 E9        30.14F
CHADRON        SUNNY     81  36  19 E6G18     30.10F
GORDON         FAIR      76  37  24 CALM      30.15F
KIMBALL        SUNNY     82  46  28 CALM      30.17F
SIDNEY         MOSUNNY   85  48  27 E8        30.15F
$$

NEZ057>060-069>072-079>082-262300-
SOUTHWEST NEBRASKA

CITY           SKY/WX    TMP DP  RH WIND       PRES   REMARKS
NORTH PLATTE   SUNNY     81  45  28 NE14      30.13F
IMPERIAL       SUNNY     85  54  34 E12       30.11F
LEXINGTON      MOSUNNY   78  53  41 E10       30.12F
MCCOOK         SUNNY     81  60  48 E13       30.11R
OGALLALA       SUNNY     83  42  23 E13       30.13F
$$

NEZ005>010-023>029-035>040-094-262300-
NORTH CENTRAL NEBRASKA

CITY           SKY/WX    TMP DP  RH WIND       PRES   REMARKS
VALENTINE      SUNNY     78  36  21 E8        30.16F
AINSWORTH      SUNNY     75  42  30 E9        30.17F
BROKEN BOW     SUNNY     78  45  30 E12G20    30.14F
O`NEILL        SUNNY     74  40  29 NE12      30.16F
ORD            SUNNY     76  40  27 NE10      30.13F
THEDFORD       SUNNY     79  42  26 NE9G17    30.17S
$$

NEZ041-046>049-061>064-073>077-083>087-262300-
SOUTH CENTRAL NEBRASKA

CITY           SKY/WX    TMP DP  RH WIND       PRES   REMARKS
GRAND ISLAND   SUNNY     77  53  43 NE13      30.12F
AURORA         MOSUNNY   78  51  39 NE15      30.11S
HASTINGS       SUNNY     77  55  46 NE12G21   30.11F
HEBRON         RAIN      67  62  85 N7        30.09F
HOLDREGE       SUNNY     74  60  61 NE7       30.12F
KEARNEY *      MOSUNNY   79  54  41 E7        30.12F
YORK           SUNNY     77  54  44 NE14G20   30.11F
$$

NEZ011>018-030>034-042>045-262300-
NORTHEAST NEBRASKA

CITY           SKY/WX    TMP DP  RH WIND       PRES   REMARKS
NORFOLK        MOSUNNY   74  43  32 NE10G16   30.14F
ALBION         SUNNY     76  45  33 E9        30.15F
BLAIR          MOSUNNY   76  52  43 NE13      30.12F
FREMONT        SUNNY     74  48  40 N5        30.13F
TEKAMAH        PTSUNNY   74  45  35 NE12      30.12F
WAYNE          MOSUNNY   73  44  34 N6        30.15F
$$

NEZ050>053-065>068-078-088>093-262300-
SOUTHEAST NEBRASKA

CITY           SKY/WX    TMP DP  RH WIND       PRES   REMARKS
LINCOLN        MOSUNNY   77  60  55 E8        30.11F
OMAHA EPPLEY   MOSUNNY   78  49  35 N13       30.11F
BEATRICE       LGT RAIN  64  62  93 E6        30.12S
FALLS CITY     CLOUDY    68  59  73 E5        30.12F
NEBRASKA CITY  MOSUNNY   71  62  74 S6        30.12F
PLATTSMOUTH    MOSUNNY   73  55  53 CALM      30.11F
$$

NEZ044-045-051>053-067-262300-
OMAHA AREA

CITY           SKY/WX    TMP DP  RH WIND       PRES   REMARKS
OMAHA EPPLEY   MOSUNNY   78  49  35 N13       30.11F
BLAIR          MOSUNNY   76  52  43 NE13      30.12F
FREMONT        SUNNY     74  48  40 N5        30.13F
MILLARD        SUNNY     76  53  44 NE6       30.11F
OFFUTT AFB     SUNNY     74  55  50 NE7       30.10F
PLATTSMOUTH    MOSUNNY   73  55  53 CALM      30.11F
WAHOO          FAIR      76  47  35 NE12G17   30.12S
$$




USA.gov is the U.S. government's official web portal to all federal, state and local government web resources and services.